Mountain Home, ID

8:43 PM MDT on May 22, 2017 (GMT -0600)
Mountain Home Air Force Base

Weather History for KMUO - November, 2011

Change the Weather History Date:

Thursday, November 3, 2011

  Actual Average Record
Temperature  
Mean Temperature 47 °F 44 °F  
Max Temperature 55 °F 56 °F 73 °F (1978)
Min Temperature 39 °F 31 °F 5 °F (1936)
Degree Days  
Heating Degree Days 18 21  
Month to date heating degree days 78 61  
Cooling Degree Days 0 0  
Month to date cooling degree days 0 0  
Moisture  
Dew Point 14 °F    
Average Humidity 28    
Maximum Humidity 36    
Minimum Humidity 20    
Precipitation  
Precipitation 0.00 in 0.04 in 0.41 in (1988)
Month to date precipitation 0.00 0.11  
Sea Level Pressure  
Sea Level Pressure 29.84 in    
Wind  
Wind Speed 24 mph (ESE)    
Max Wind Speed 30 mph    
Max Gust Speed 39 mph    
Visibility 10 miles    
Events      
T = Trace of Precipitation, MM = Missing Value Source: NWS Daily Summary

Daily Weather History Graph

Daily Weather History Graph

Search for Another Location

Airport or City:

Trip Planner

Search our weather history database for the weather conditions in past years. The results will help you decide how hot, cold, wet, or windy it might be!

Date:

Astronomy

Nov. 03, 2011 Rise Set
Actual Time 8:20 AM MDT 6:33 PM MDT
Civil Twilight 7:50 AM MDT 7:02 PM MDT
Nautical Twilight 7:17 AM MDT 7:36 PM MDT
Astronomical Twilight 6:43 AM MDT 8:09 PM MDT
Moon 3:08 PM MDT (11/3) 1:26 AM MDT (11/3)
Length of Visible Light 11h 12m
Length of Day
10h 12m
First Quarter, 61% of the Moon is Illuminated
Nov 3
First Quarter
Nov 10
Full
Nov 18
Last Quarter
Nov 24
New
Dec 2
First Quarter

Hourly Weather History & Observations

Time (MDT) Temp. Windchill Dew Point Humidity Pressure Visibility Wind Dir Wind Speed Gust Speed Precip Events Conditions
12:55 AM 41.0 °F 30.9 °F 10.2 °F 28% 30.14 in 10.0 mi East 24.2 mph 33.4 mph N/A   Clear
1:55 AM 40.1 °F 29.5 °F 11.1 °F 31% 30.12 in 10.0 mi ESE 25.3 mph - N/A   Partly Cloudy
2:55 AM 39.4 °F 29.8 °F 11.8 °F 32% 30.09 in 10.0 mi ESE 19.6 mph - N/A   Mostly Cloudy
3:55 AM 40.1 °F 29.9 °F 12.0 °F 32% 30.06 in 10.0 mi ESE 23.0 mph - N/A   Mostly Cloudy
4:55 AM 40.8 °F 31.4 °F 13.3 °F 33% 30.03 in 10.0 mi ESE 20.7 mph - N/A   Clear
5:55 AM 41.0 °F 30.9 °F 13.5 °F 33% 30.02 in 10.0 mi ESE 24.2 mph 31.1 mph N/A   Overcast
6:55 AM 39.9 °F 29.7 °F 13.8 °F 35% 30.01 in 10.0 mi ESE 23.0 mph 28.8 mph N/A   Clear
7:55 AM 39.7 °F 29.5 °F 14.4 °F 36% 29.99 in 10.0 mi ESE 23.0 mph 32.2 mph N/A   Clear
8:55 AM 40.3 °F 29.3 °F 14.4 °F 35% 29.97 in 10.0 mi ESE 27.6 mph 33.4 mph N/A   Mostly Cloudy
9:55 AM 41.9 °F 31.7 °F 16.3 °F 36% 29.95 in 10.0 mi ESE 26.5 mph 35.7 mph N/A   Scattered Clouds
10:55 AM 45.1 °F 35.6 °F 17.1 °F 33% 29.92 in 10.0 mi ESE 28.8 mph 36.8 mph N/A   Partly Cloudy
11:55 AM 48.0 °F - 15.8 °F 28% 29.90 in 10.0 mi East 29.9 mph 39.1 mph N/A   Scattered Clouds
12:55 PM 51.6 °F - 16.2 °F 25% 29.86 in 10.0 mi East 28.8 mph 34.5 mph N/A   Mostly Cloudy
1:55 PM 53.2 °F - 16.3 °F 23% 29.81 in 10.0 mi East 26.5 mph 34.5 mph N/A   Mostly Cloudy
2:55 PM 54.5 °F - 14.9 °F 21% 29.77 in 10.0 mi East 23.0 mph 31.1 mph N/A   Overcast
3:55 PM 54.1 °F - 15.3 °F 22% 29.72 in 10.0 mi East 23.0 mph 29.9 mph N/A   Overcast
4:55 PM 55.0 °F - 14.7 °F 20% 29.68 in 10.0 mi East 19.6 mph 27.6 mph N/A   Mostly Cloudy
5:55 PM 54.7 °F - 13.5 °F 20% 29.65 in 10.0 mi East 19.6 mph 27.6 mph N/A   Mostly Cloudy
6:55 PM 53.2 °F - 15.4 °F 22% 29.62 in 10.0 mi East 18.4 mph 26.5 mph N/A   Overcast
7:55 PM 52.7 °F - 16.2 °F 24% 29.60 in 10.0 mi East 19.6 mph 28.8 mph N/A   Overcast
8:55 PM 51.6 °F - 15.4 °F 24% 29.58 in 10.0 mi East 21.9 mph 29.9 mph N/A   Mostly Cloudy
9:55 PM 50.0 °F - 14.7 °F 25% 29.56 in 10.0 mi East 27.6 mph 33.4 mph N/A   Mostly Cloudy
10:55 PM 48.0 °F - 14.9 °F 27% 29.55 in 10.0 mi East 21.9 mph 28.8 mph N/A   Mostly Cloudy
11:55 PM 47.5 °F - 14.4 °F 27% 29.53 in 10.0 mi East 20.7 mph - N/A   Scattered Clouds